Regional Weather Roundup
Issued by NWS

Home | Current Version | Previous Version | Graphics & Text | Print | Product List | Glossary On
Versions: 1 2 3 4 5 6 7 8 9 10 11 12 13 14 15 16 17 18 19 20 21 22 23 24 25 26 27 28 29 30 31 32 33 34 35 36 37 38 39 40 41 42 43 44 45 46 47 48 49 50
000
ASUS43 KDMX 241606
RWRIA

WEATHER ROUNDUP FOR IOWA
NATIONAL WEATHER SERVICE DES MOINES IA
1100 AM CDT TUE APR 24 2018

NOTE: "FAIR" INDICATES FEW OR NO CLOUDS BELOW 12,000 FEET WITH NO
SIGNIFICANT WEATHER AND/OR OBSTRUCTIONS TO VISIBILITY.

* - THESE STATIONS ARE NOT NWS STATIONS...THUS NOT UNDER NWS
QUALITY CONTROL.  THEY ALSO DO NOT REPORT WEATHER SUCH
AS PRECIPITATION OR FOG.

IAZ001>003-012>014-020>022-031>034-043>046-241700-
   NORTHWEST IOWA

CITY           SKY/WX    TMP DP  RH WIND       PRES   REMARKS
CARROLL *      SUNNY     66  39  37 N6        30.14S
CHEROKEE *     CLOUDY    59  45  60 N7        30.17R
DENISON *      MOSUNNY   66  37  34 VRB5      30.16S
LE MARS *      PTSUNNY   55  43  62 N10       30.18R
ORANGE CITY *  CLOUDY    57  45  62 N9        30.18S
SHELDON *      CLOUDY    55  45  67 NE13      30.17S
SIOUX CITY     CLOUDY    59  43  55 NW8       30.17S
SPENCER        CLOUDY    58  43  57 NW14      30.18R
STORM LAKE *     N/A     63  41  45 NE8       30.16S
$$

IAZ055>058-069>071-079>083-090>094-241700-
   SOUTHWEST IOWA

CITY           SKY/WX    TMP DP  RH WIND       PRES   REMARKS
ATLANTIC *     SUNNY     68  34  28 W7        30.14S
AUDUBON *      SUNNY     66  36  32 N5        30.15S
CLARINDA *     SUNNY     68  30  24 NW7       30.16S
COUNCIL BLFS * MOSUNNY   66  39  37 CALM      30.14F
CRESTON *      SUNNY     68  30  24 N7        30.15S
HARLAN  *      MOSUNNY   66  36  32 CALM      30.17F
LAMONI         SUNNY     68  34  28 VRB7      30.12S
SHENANDOAH *   MOSUNNY   68  32  26 VRB6      30.15F
$$

IAZ047>049-059>061-072>074-084-241700-
   CENTRAL IOWA

CITY           SKY/WX    TMP DP  RH WIND       PRES   REMARKS
AMES           SUNNY     68  32  26 NW3       30.12F
ANKENY *       SUNNY     68  36  30 NW7       30.14S
BOONE *        SUNNY     66  32  28 NW3       30.13S
CHARITON *     SUNNY     66  34  30 NW10      30.11S
DES MOINES     PTSUNNY   67  36  31 VRB3      30.13S
GRINNELL*      SUNNY     68  29  23 N7        30.12R
KNOXVILLE *    SUNNY     66  30  26 N7        30.10S
MARSHALLTOWN   SUNNY     67  34  29 NW9       30.11R
NEWTON *       SUNNY     68  32  26 VRB6G13   30.12R
PELLA *        SUNNY     68  32  26 W6        30.12R
PERRY *        FAIR      66  25  21 N5        30.14S
$$

IAZ004>006-015-016-023>025-035-036-241700-
   NORTH CENTRAL IOWA

CITY           SKY/WX    TMP DP  RH WIND       PRES   REMARKS
ALGONA *       MOSUNNY   61  45  55 N9        30.17R
CLARION *      SUNNY     64  41  42 N6        30.15R
ESTHERVILLE    CLOUDY    58  46  64 NW8       30.17R
FORT DODGE *   MOSUNNY   64  45  49 NE8       30.16R
MASON CITY     SUNNY     65  44  46 N9        30.15S
FOREST CITY *  FAIR      63  45  51 NW7       30.15R
WEBSTER CITY * MOSUNNY   66  34  30 N6G12     30.12S
IOWA FALLS *   FAIR      67  37  33 N7        30.14F
$$

IAZ007>011-017>019-026>030-037>042-050>054-066-241700-
   NORTHEAST IOWA

CITY           SKY/WX    TMP DP  RH WIND       PRES   REMARKS
CEDAR RAPIDS   FAIR      67  31  26 N10       30.08F
CHARLES CITY * FAIR      66  37  34 VRB7G13   30.12S
CLINTON *      FAIR      65  30  27 N13       30.07S
DECORAH *      FAIR      64  32  29 VRB5      30.09S
DUBUQUE        FAIR      63  29  27 NE14      30.08F
MONTICELLO *   FAIR      66  28  24 VRB7G17   30.08S
OELWEIN *      FAIR      66  30  26 N7        30.10S
WATERLOO       FAIR      67  33  28 NW6       30.10S
$$

IAZ064-065-067-068-078-241700-
   EAST CENTRAL IOWA

CITY           SKY/WX    TMP DP  RH WIND       PRES   REMARKS
DAVENPORT      FAIR      66  28  24 MISG      30.08F
IOWA CITY      FAIR      67  28  23 N10       30.09F
MT. PLEASANT * SUNNY     66  30  26 N14       30.08S
MUSCATINE *    FAIR      66  28  24 NE10G17   30.07F
QUAD CITIES    FAIR      67  30  25 NE10      30.05F
$$

IAZ062-063-075>077-085>089-095>099-241700-
   SOUTHEAST IOWA

CITY           SKY/WX    TMP DP  RH WIND       PRES   REMARKS
BURLINGTON     SUNNY     65  38  36 NE8       30.06F
FAIRFIELD *    SUNNY     66  32  28 N10       30.09R
FORT MADISON * SUNNY     66  39  37 N5        30.07S
KEOKUK *       SUNNY     64  45  48 VRB8      30.07R
OSKALOOSA *    FAIR      67  30  25 N12       30.10S
CENTERVILLE *    N/A     68  32  26 NE6       30.12R
OTTUMWA        SUNNY     68  30  24 N10       30.09F
WASHINGTON *   SUNNY     66  30  26 N10       30.10R
$$

ABBREVIATIONS USED IN REMARKS
   TC - TEMPERATURES IN CELSIUS
  WCI - WIND CHILL INDEX
   HX - HEAT INDEX
  VSB - VISIBILITY
$$




USA.gov is the U.S. government's official web portal to all federal, state and local government web resources and services.